TimeCDT,TemperatureF,Dew PointF,Humidity,Sea Level PressureIn,VisibilityMPH,Wind Direction,Wind SpeedMPH,Gust SpeedMPH,PrecipitationIn,Events,Conditions,WindDirDegrees,DateUTC
12:53 AM,43.0,39.0,86,29.53,10.0,WNW,19.6,26.5,0.02,,Overcast,290,2012-10-19 05:53:00
1:53 AM,43.0,39.0,86,29.53,10.0,WNW,19.6,29.9,0.00,,Overcast,290,2012-10-19 06:53:00
2:53 AM,43.0,39.0,86,29.53,10.0,WNW,16.1,24.2,0.01,Rain,Light Rain,300,2012-10-19 07:53:00
3:02 AM,42.8,39.2,87,29.52,10.0,NW,18.4,28.8,0.00,Rain,Light Rain,310,2012-10-19 08:02:00
3:53 AM,43.0,39.0,86,29.54,10.0,WNW,19.6,28.8,0.01,Rain,Light Rain,300,2012-10-19 08:53:00
4:53 AM,42.1,39.0,89,29.54,10.0,WNW,15.0,-,0.00,,Overcast,300,2012-10-19 09:53:00
5:53 AM,43.0,39.0,86,29.57,10.0,WNW,18.4,26.5,N/A,,Overcast,300,2012-10-19 10:53:00
6:53 AM,43.0,39.0,86,29.59,10.0,WNW,18.4,26.5,N/A,,Overcast,300,2012-10-19 11:53:00
7:53 AM,43.0,39.9,89,29.60,10.0,NW,16.1,23.0,N/A,,Overcast,310,2012-10-19 12:53:00
8:53 AM,44.1,39.9,85,29.63,10.0,NW,16.1,25.3,N/A,,Overcast,310,2012-10-19 13:53:00
9:53 AM,45.0,41.0,86,29.66,10.0,NW,17.3,27.6,N/A,,Overcast,310,2012-10-19 14:53:00
10:53 AM,46.9,41.0,80,29.68,10.0,NW,17.3,28.8,N/A,,Overcast,320,2012-10-19 15:53:00
11:06 AM,46.4,41.0,81,29.67,10.0,NW,21.9,29.9,N/A,,Overcast,320,2012-10-19 16:06:00
11:53 AM,46.0,41.0,83,29.71,9.0,NW,18.4,27.6,N/A,,Overcast,310,2012-10-19 16:53:00
12:25 PM,46.4,42.8,87,29.71,8.0,NW,20.7,25.3,N/A,,Overcast,310,2012-10-19 17:25:00
12:53 PM,46.0,41.0,83,29.73,10.0,NW,18.4,25.3,N/A,,Overcast,310,2012-10-19 17:53:00
1:53 PM,48.0,41.0,77,29.72,10.0,WNW,18.4,24.2,N/A,,Overcast,300,2012-10-19 18:53:00
2:53 PM,48.0,39.9,74,29.73,10.0,WNW,16.1,24.2,N/A,,Overcast,290,2012-10-19 19:53:00
3:38 PM,46.4,42.8,87,29.73,4.0,WNW,13.8,21.9,N/A,,Overcast,300,2012-10-19 20:38:00
3:53 PM,45.0,42.1,90,29.75,6.0,WNW,16.1,23.0,N/A,,Overcast,290,2012-10-19 20:53:00
4:11 PM,46.4,42.8,87,29.73,10.0,WNW,15.0,24.2,N/A,,Overcast,290,2012-10-19 21:11:00
4:50 PM,46.4,41.0,81,29.74,10.0,WNW,13.8,-,N/A,,Overcast,290,2012-10-19 21:50:00
4:53 PM,46.0,41.0,83,29.76,10.0,WNW,12.7,-,N/A,,Overcast,290,2012-10-19 21:53:00
5:45 PM,46.4,41.0,81,29.75,10.0,NW,11.5,-,N/A,,Overcast,310,2012-10-19 22:45:00
5:53 PM,46.0,41.0,83,29.77,10.0,WNW,15.0,19.6,N/A,,Overcast,290,2012-10-19 22:53:00
6:38 PM,46.4,39.2,76,29.77,10.0,WNW,12.7,19.6,N/A,,Overcast,300,2012-10-19 23:38:00
6:53 PM,46.0,39.9,79,29.78,10.0,NW,10.4,-,N/A,,Overcast,310,2012-10-19 23:53:00
7:43 PM,46.4,39.2,76,29.78,10.0,WNW,11.5,-,N/A,,Overcast,290,2012-10-20 00:43:00
7:53 PM,46.0,39.9,79,29.80,10.0,WNW,12.7,-,N/A,,Overcast,300,2012-10-20 00:53:00
8:53 PM,45.0,39.9,82,29.80,10.0,NW,6.9,-,N/A,,Overcast,310,2012-10-20 01:53:00
9:53 PM,45.0,41.0,86,29.81,10.0,NW,8.1,-,N/A,,Overcast,310,2012-10-20 02:53:00
10:53 PM,45.0,39.9,82,29.81,10.0,WNW,11.5,-,N/A,,Overcast,300,2012-10-20 03:53:00
11:25 PM,44.6,39.2,81,29.79,10.0,NW,11.5,-,N/A,,Overcast,320,2012-10-20 04:25:00
11:53 PM,44.1,39.9,85,29.81,10.0,NW,8.1,-,N/A,,Overcast,320,2012-10-20 04:53:00